Regional Weather Roundup
Issued by NWS Newport/Morehead, NC

Current Version | Previous Version | Graphics & Text | Print | Product List | Glossary Off
Versions: 1 2 3 4 5 6 7 8 9 10 11 12 13 14 15 16 17 18 19 20 21 22 23 24 25 26 27 28 29 30 31 32 33 34 35 36 37 38 39 40 41 42 43 44 45 46 47 48 49 50

000
ASUS42 KMHX 291713
RWRMHX
WEATHER ROUNDUP FOR EASTERN NORTH CAROLINA
NATIONAL WEATHER SERVICE NEWPORT/MOREHEAD CITY NC
100 PM EDT FRI JUL 29 2016

NOTE: "FAIR" INDICATES FEW OR NO CLOUDS BELOW 12,000 FEET
WITH NO SIGNIFICANT WEATHER AND/OR OBSTRUCTIONS TO VISIBILITY

NCZ015>017-031-032-045>047-102-103-291800-
NORTH COAST

CITY           SKY/WX    TMP DP  RH WIND       PRES   REMARKS
EDENTON        MOSUNNY   91  71  52 W3        29.88S
ELIZABETH CITY MOSUNNY   90  74  59 N9        29.86F
KITTY HAWK     SUNNY     93  73  52 W9        29.86F HX 101
MANTEO           N/A     88  77  69 N9        29.87F HX 100

$$

NCZ045>047-081-094-103-104-291800-
CENTRAL COAST

CITY           SKY/WX    TMP DP  RH WIND       PRES   REMARKS
FRISCO         SUNNY     86  78  77 SW10      29.90S

$$

NCZ095-097-098-100-101-291800-
SOUTHERN COAST

CITY           SKY/WX    TMP DP  RH WIND       PRES   REMARKS
BEAUFORT       SUNNY     89  77  67 SW16      29.89F HX 101
CEDAR ISLAND   NOT AVBL
JACKSONVILLE   MOSUNNY   92  72  51 W10G17    29.88F
PINEY ISLAND   NOT AVBL
WILMINGTON     SUNNY     93  71  48 W13       29.90F HX 100


$$

NCZ011>013-027>030-043-044-078>080-089-090>093-098-291800-
COASTAL PLAIN

CITY           SKY/WX    TMP DP  RH WIND       PRES   REMARKS
AHOSKIE        MOSUNNY   83  74  73 N3        29.88F
CLINTON        MOSUNNY   92  73  54 NW7       29.91S HX 101
ELIZABETHTOWN  MOSUNNY   91  71  50 W14       29.91F
GOLDSBORO      MOSUNNY   92  71  50 W13       29.88F
GREENVILLE     CLOUDY    90  75  62 NW7       29.90F HX 100
HAVELOCK       MOSUNNY   93  73  52 W10       29.89F HX 102
KENANSVILLE    NOT AVBL
KINSTON        MOSUNNY   90  72  55 W6        29.89F
NEW BERN       MOSUNNY   91  74  57 W10       29.90S HX 100
RICHLANDS      MOSUNNY   94  74  52 W8        29.90F HX 104
ROCKY MOUNT    PTSUNNY   88  73  61 NW8       29.89F
WASHINGTON     MOSUNNY   88  74  63 W6        29.88S
WHITEVILLE     MOSUNNY   91  72  54 W9        29.91F

$$

AMZ130-135-150-152-154-156-158-170-250-252-270-ANZ085-086-088-633-658-670-291800-
MARINE OBSERVATIONS

STATION/POSITION TIME  TEMP    WIND        PRES    WAVE   SWELL
                       AIR SEA DIR/SP/G            HT/PER HT/PER
                 (UTC) (F)     (DEG/KT/KT) (MB)    (FT/S) (FT/S)
CHESAPEAKE LIGHT NOT AVBL
64 E VA BEACH    1650   82 83  310/ 10/ 12 1011.2    3/ 6   3/ 6
DUCK             1600   86 67  250/ 10/ 12 1010.8
2 E DUCK         1611      74                N/A     1/14
OREGON INLET     1600   88 84  240/ 10/ 13 1011.6
13E OREGON INLT  1700      81                N/A     3/ 6   2/ 6
HATTERAS CG      1600   86 83  210/  8/ 13 1012.1
DIAMOND BUOY     1650   86 85  220/ 17/ 21 1012.3    3/ 6   2/ 8
CAPE LOOKOUT     1700   88     210/ 12/ 15 1012.3
BEAUFORT LAB     1600   87 83  220/  6/ 15 1011.9
30 SE NEW RVR IN 1608   85 85  230/ 16/ 19 1013.3
30 SE NEW RVR IN 1625      85                N/A     4/ 6
27 SE WRIGHTSVLE 1608   85 84  230/ 14/ 19 1013.5
5 SE WRIGHTSVLE  NOT AVBL
225 S CAPE HAT   1650   85 85  240/ 10/ 12 1016.3    3/ 6   3/ 6
41 SE CHARLESTON 1650   85 85  230/ 12/ 14 1014.6    4/ 6   2/ 6

$$



USA.gov is the U.S. government's official web portal to all federal, state and local government web resources and services.